Location: Mifaget
(43.1167°N, 0.3167°W)
Time: 01:11:47
(UTC+00:00)

Daily predictions for brighter satellites

Satellite Brightness Start Highest point End
(mag) Time Altitude Azimuth Time Altitude Azimuth Time Altitude Azimuth
Lacrosse 5 3.9 00:01:32 10° WNW 00:03:12 16° W 00:03:12 16° W
Cosmos 1655 Rocket 4.1 00:07:30 52° SW 00:08:48 65° W 00:15:02 10° N
STARLINK-1104 4.2 00:04:49 10° NW 00:08:12 54° NNW 00:08:12 54° NNW
S3M 4.1 00:05:33 10° NNW 00:11:36 62° W 00:12:36 54° SW
COSMOS 2455 3.2 00:11:40 46° ESE 00:12:00 46° ESE 00:17:43 10° NE
Cosmos 1726 3.2 00:08:19 10° N 00:10:54 43° NNW 00:10:54 43° NNW
Cosmos 2263 4.2 00:12:25 60° WSW 00:13:18 72° WNW 00:18:56 10° NNE
STARLINK-1144 4.3 00:09:47 10° NW 00:12:59 50° NW 00:12:59 50° NW
Cosmos 2228 3.7 00:11:37 10° N 00:15:32 46° ENE 00:15:32 46° ENE
STARLINK-1103 4.4 00:14:46 10° NW 00:17:46 46° NW 00:17:46 46° NW
Meteor 2-15 Rocket 4.5 00:13:24 10° N 00:19:35 75° E 00:20:55 56° SSE
Cosmos 1953 3.2 00:16:26 10° NNW 00:19:26 43° NW 00:19:26 43° NW
Cosmos 1271 Rocket 4.4 00:21:40 26° WNW 00:21:40 26° WNW 00:24:31 10° NNW
Cosmos 1340 Rocket 3.4 00:17:55 10° NNW 00:21:08 54° NNW 00:21:08 54° NNW
Cosmos 1992 Rocket 4.1 00:25:15 58° W 00:25:49 62° WNW 00:31:00 10° NNE
COSMOS 2487 3.9 00:24:53 10° N 00:27:18 36° NNE 00:27:18 36° NNE
Cosmos 1707 4.5 00:29:05 25° WNW 00:29:05 25° WNW 00:31:57 10° NNW
Cosmos 1833 4.0 00:23:29 10° NNW 00:29:08 81° WSW 00:29:45 70° S
USA 215 4.1 00:33:07 32° WSW 00:33:07 32° WSW 00:38:09 10° WNW
Cosmos 1626 3.7 00:34:31 29° ENE 00:34:31 29° ENE 00:37:10 10° NNE
Cosmos 1656 Rocket 3.8 00:33:51 56° WSW 00:34:51 68° WNW 00:40:28 10° NNE
In-Cosmos 22 4.3 00:35:37 53° WSW 00:36:14 56° WNW 00:41:27 10° N
FALCON 9 R/B 3.3 00:38:25 43° SSE 00:38:36 43° SSE 00:53:05 10° E
Cosmos 1606 Rocket 3.6 00:34:49 10° N 00:38:48 75° N 00:38:48 75° N
EO 1 Delta rocket 4.4 00:37:32 10° N 00:43:44 61° WNW 00:44:41 53° WSW
Meteor 1-16 Rocket 4.4 00:39:32 10° NNW 00:44:56 51° W 00:45:20 50° WSW
CZ-4 R/B 3.9 00:40:19 10° N 00:45:07 65° WNW 00:45:23 63° W
Meteor 2-21 4.4 00:45:34 54° SSE 00:46:59 74° E 00:53:10 10° NNE
SL-4 R/B 2.3 00:49:12 75° ESE 00:49:12 75° ESE 00:53:45 10° ENE
NOSS 3-2 (C) 4.1 00:44:11 10° NW 00:51:47 61° WSW 00:54:29 43° S
Cosmos 1674 3.7 00:53:21 39° NW 00:53:21 39° NW 00:56:14 10° N
PSLV R/B 3.9 00:49:14 10° N 00:53:46 58° WNW 00:53:53 58° W
ATLAS CENTAUR R/B 1.4 00:56:56 79° NE 00:56:56 79° NE 01:00:55 10° NE
SL-19 R/B 4.2 00:53:30 10° NNE 00:58:55 73° ESE 01:00:03 56° SSE
NOSS 3-4 (A) 3.6 00:57:31 41° WSW 00:59:31 63° NW 01:05:49 10° NNE
NOSS 3-4 (C) 3.6 00:57:38 42° WSW 00:59:37 64° NW 01:05:55 10° NNE
SL-16 R/B 3.5 00:56:01 19° SE 01:00:08 43° ENE 01:05:54 10° N
BREEZE-M R/B 3.8 01:01:08 41° ESE 01:01:08 41° ESE 01:03:37 10° ENE
Cosmos 1777 Rocket 4.1 00:55:16 10° NNW 01:00:30 70° ENE 01:01:54 48° SE
Timation 2 Rocket 4.4 00:54:20 10° NNW 01:00:38 59° ENE 01:04:30 23° SE
Spot 1 4.3 01:00:53 64° SE 01:01:30 75° ENE 01:06:19 10° N
ATLAS 3B R/B 2.7 01:00:49 10° NW 01:07:39 82° NE 01:12:43 21° SE
Cosmos 1244 Rocket 4.4 01:07:54 51° SSW 01:09:33 76° W 01:15:47 10° N
BREEZE-M DEB (TANK) 3.3 01:12:38 27° NE 01:12:38 27° NE 01:13:51 10° NE
CENTAUR R/B 3.3 01:03:38 10° NW 01:11:37 55° WSW 01:14:47 38° S
Meteor 2-21 Rocket 4.4 01:11:40 51° S 01:13:23 89° W 01:19:36 10° N
Cosmos 1892 Rocket 3.8 01:14:51 55° W 01:14:55 55° W 01:19:16 10° N
Cosmos 1745 Rocket 4.2 01:12:45 39° SSE 01:14:55 62° E 01:20:59 10° NNE
Cosmos 1867 3.5 01:10:42 10° NW 01:16:07 64° WSW 01:16:44 59° SSW
RESURS DK-1 2.3 01:19:17 79° ESE 01:19:17 79° ESE 01:23:23 10° NNE
Meteor 1-24 Rocket 3.6 01:22:03 54° SW 01:23:06 67° WNW 01:28:29 10° N
Cosmos 2227 Rocket 3.9 01:19:10 10° N 01:24:11 31° NE 01:29:11 10° ESE
Cosmos 2369 Rocket 4.4 01:20:45 10° W 01:24:27 17° NW 01:28:09 10° N
Cosmos 1356 Rocket 3.8 01:20:55 10° N 01:25:01 57° ENE 01:25:49 47° ESE
ATLAS 2AS CENTAUR R/B 3.7 01:23:17 22° WSW 01:28:23 49° NW 01:36:03 10° NNE
CZ-2D R/B 2.4 01:23:27 10° NNE 01:28:37 56° E 01:30:15 39° SSE
Helios 1B rocket 4.1 01:25:35 10° NNW 01:28:47 22° WNW 01:29:11 22° WNW
ADEOS II 3.9 01:26:58 10° NE 01:31:07 23° E 01:34:07 15° SE
CZ-4C R/B 3.5 01:30:46 59° SE 01:31:29 76° ENE 01:35:48 10° N
DELTA 2 DEB (DPAF) 4.0 01:34:11 64° SW 01:34:36 69° WSW 01:39:04 10° NNW
STARLINK-1228 3.9 01:31:39 10° NW 01:34:54 49° NNE 01:38:10 10° ESE
STARLINK-1234 3.9 01:33:05 10° NW 01:36:07 45° NNE 01:37:02 33° ENE
Meteor 2-5 Rocket 4.4 01:35:17 34° WSW 01:36:40 39° WNW 01:41:53 10° N
STARLINK-1212 4.5 01:34:31 10° NW 01:37:26 36° NNE 01:40:20 10° E
STARLINK-1105 4.4 01:34:59 10° NW 01:37:54 36° NNE 01:40:47 10° E
Resurs 1-4 Rocket 2.2 01:33:07 10° NNE 01:38:25 71° ESE 01:40:11 42° S
STARLINK-1209 3.7 01:35:19 10° NW 01:38:25 51° NNE 01:38:42 48° NE
STARLINK-1247 4.4 01:35:53 10° NW 01:38:50 37° NNE 01:41:46 10° E
STARLINK-52 3.6 01:39:41 56° NNE 01:39:41 56° NNE 01:42:21 10° NE
STARLINK-1227 4.4 01:36:21 10° NW 01:39:17 37° NNE 01:42:11 10° E
STARLINK-1226 4.4 01:37:12 10° NW 01:40:09 37° NNE 01:43:05 10° E
STARLINK-1215 4.3 01:38:08 10° NW 01:41:06 38° NNE 01:44:02 10° E
STARLINK-1217 4.3 01:39:53 10° NW 01:42:51 39° NNE 01:45:49 10° E
STARLINK-1229 4.2 01:40:48 10° NW 01:43:47 40° NNE 01:46:45 10° E
STARLINK-1270 4.2 01:41:40 10° NW 01:44:39 41° NNE 01:47:38 10° ESE
NPP 3.7 01:40:28 10° NNE 01:45:51 70° ESE 01:47:56 38° S
STARLINK-1189 4.1 01:43:30 10° NW 01:46:30 42° NNE 01:49:29 10° ESE
STARLINK-1188 4.1 01:44:23 10° NW 01:47:23 42° NNE 01:50:23 10° ESE
STARLINK-1235 3.5 01:45:01 10° NW 01:48:05 54° NNE 01:51:07 10° ESE
STARLINK-1187 3.8 01:45:28 10° NW 01:48:30 48° NNE 01:51:31 10° ESE
GEOS 3 Rocket 4.1 01:48:43 37° WSW 01:48:43 37° WSW 01:53:32 10° NW
STARLINK-1191 4.0 01:46:51 10° NW 01:49:51 44° NNE 01:52:50 10° ESE
Cosmos 1656 4.2 01:48:20 32° SSE 01:50:39 51° ESE 01:56:07 10° NE
STARLINK-1221 3.9 01:47:43 10° NW 01:50:43 45° NNE 01:53:43 10° ESE
Cosmos 2058 Rocket 4.1 01:47:11 10° NNW 01:51:01 30° W 01:51:01 30° W
STARLINK-1222 3.9 01:48:36 10° NW 01:51:37 46° NNE 01:54:37 10° ESE
STARLINK-1214 3.9 01:49:31 10° NW 01:52:31 46° NNE 01:55:32 10° ESE
CZ-4C R/B 3.4 01:50:43 20° SE 01:52:39 26° ESE 01:57:11 10° NE
Cosmos 2084 3.4 01:52:18 55° SW 01:53:15 86° NW 01:57:45 10° NE
SL-08 ROCKET BODY 4.4 01:52:04 39° SSW 01:54:16 68° W 02:00:07 10° N
SJ 16-02 2.4 01:51:04 10° N 01:55:19 44° ENE 01:59:16 12° SE
COSMOS 2455 4.0 01:54:47 20° W 01:58:05 34° NW 02:03:31 10° NNE
Cosmos 1300 4.0 01:57:11 10° NNW 02:00:00 27° WNW 02:00:00 27° WNW
Cosmos 921 Rocket 3.7 02:00:21 35° W 02:01:10 38° WNW 02:05:13 10° N
Meteor 2-10 Rocket 3.7 01:57:15 10° N 02:02:35 70° ENE 02:06:01 21° SSE
Cosmos 1709 Rocket 3.9 02:01:48 30° S 02:05:01 84° E 02:11:10 10° N
Cosmos 1626 Rocket 4.0 02:06:42 38° WSW 02:07:32 43° WNW 02:11:41 10° N
Cosmos 1626 4.1 02:09:03 16° WNW 02:09:10 16° WNW 02:11:37 10° NNW
STARLINK-1320 2.7 02:14:52 74° SSE 02:14:56 75° SE 02:18:03 10° ENE
STARLINK-1322 2.7 02:15:11 74° SSE 02:15:16 75° SE 02:18:24 10° ENE
STARLINK-1324 2.7 02:15:32 74° SSE 02:15:38 76° SE 02:18:45 10° ENE
STARLINK-1294 2.7 02:15:47 74° S 02:15:55 76° SE 02:19:02 10° ENE
STARLINK-1261 2.7 02:16:10 75° S 02:16:17 77° SE 02:19:24 10° ENE
STARLINK-1325 2.7 02:16:30 75° S 02:16:39 78° SE 02:19:46 10° ENE
STARLINK-1333 2.7 02:16:48 75° S 02:16:57 78° SE 02:20:04 10° ENE
STARLINK-1334 2.7 02:17:07 75° S 02:17:17 79° SE 02:20:25 10° ENE
Cosmos 2219 3.1 02:11:40 10° NNW 02:17:21 77° WSW 02:22:14 14° SSE
STARLINK-1326 2.7 02:17:28 75° S 02:17:38 79° SE 02:20:46 10° NE
STARLINK-1323 2.7 02:17:47 74° SSW 02:17:58 80° SE 02:21:05 10° NE
Cosmos 1980 Rocket 3.9 02:13:41 10° SSE 02:18:05 25° ESE 02:22:34 10° NE
STARLINK-1338 3.1 02:17:39 58° SSW 02:18:10 72° SE 02:21:39 10° ENE
STARLINK-1349 2.7 02:18:06 74° SSW 02:18:18 80° SE 02:21:25 10° NE
STARLINK-1336 2.7 02:18:28 74° SSW 02:18:41 81° SE 02:21:48 10° NE
STARLINK-1331 2.7 02:18:45 73° SSW 02:18:59 82° SE 02:22:06 10° NE
STARLINK-1344 2.7 02:19:05 73° SSW 02:19:19 82° SE 02:22:26 10° NE
STARLINK-1343 2.7 02:19:25 73° SSW 02:19:39 83° SE 02:22:47 10° NE
STARLINK-1346 2.7 02:19:43 71° SW 02:20:01 84° SE 02:23:11 10° NE
STARLINK-1328 2.7 02:20:05 71° SW 02:20:21 84° SE 02:23:29 10° NE
STARLINK-1354 2.7 02:20:22 71° SW 02:20:40 85° SE 02:23:48 10° NE
STARLINK-1347 2.7 02:20:44 70° SW 02:21:02 85° SE 02:24:09 10° NE
Cosmos 1328 4.1 02:19:18 30° SSE 02:21:07 63° E 02:25:03 10° NNE
STARLINK-1357 2.7 02:21:02 70° SW 02:21:21 86° SE 02:24:28 10° NE
STARLINK-1335 2.7 02:21:22 69° SW 02:21:41 87° SE 02:24:48 10° NE
STARLINK-1327 2.7 02:21:41 68° SW 02:22:01 87° SE 02:25:08 10° NE
STARLINK-1371 3.1 02:21:31 54° SW 02:22:12 78° SE 02:25:42 10° ENE
STARLINK-1340 2.7 02:22:01 68° SW 02:22:22 88° SE 02:25:30 10° NE
Cosmos 192 4.5 02:20:35 34° SW 02:22:40 64° WNW 02:27:37 10° NNE
STARLINK-1356 2.7 02:22:21 67° SW 02:22:42 88° SSE 02:25:50 10° NE
STARLINK-1345 2.7 02:22:41 66° SW 02:23:03 89° S 02:26:11 10° NE
STARLINK-1355 2.7 02:22:59 66° SW 02:23:23 89° E 02:26:31 10° NE
UNK 4.3 02:22:20 33° SW 02:23:26 38° W 02:27:45 10° NNW
STARLINK-1321 2.7 02:23:18 65° SW 02:23:43 90° NNE 02:26:50 10° NE
ERS-2 4.1 02:20:47 10° SE 02:23:59 29° ENE 02:27:11 10° N
STARLINK-1358 2.7 02:23:39 64° SW 02:24:04 89° NNW 02:27:12 10° NE
STARLINK-1341 3.0 02:23:29 52° SW 02:24:15 81° SE 02:27:45 10° NE
STARLINK-1332 2.7 02:23:57 64° WSW 02:24:23 88° NW 02:27:30 10° NE
STARLINK-1348 2.7 02:24:18 63° WSW 02:24:45 88° NNW 02:27:52 10° NE
STARLINK-1330 2.7 02:24:36 62° WSW 02:25:04 87° NNW 02:28:12 10° NE
STARLINK-1363 2.7 02:24:56 61° WSW 02:25:24 87° NW 02:28:32 10° NE
STARLINK-1337 2.7 02:25:15 61° WSW 02:25:44 86° NW 02:28:52 10° NE
STARLINK-1342 2.7 02:25:35 60° WSW 02:26:04 85° NW 02:29:12 10° NE
STARLINK-1374 3.0 02:25:26 49° SW 02:26:17 84° SE 02:29:48 10° NE
STARLINK-1364 2.7 02:25:55 59° WSW 02:26:25 85° NW 02:29:33 10° NE
STARLINK-1376 2.8 02:26:15 58° WSW 02:26:46 84° NW 02:29:54 10° NE
STARLINK-1360 2.8 02:26:30 58° WSW 02:27:02 84° NW 02:30:10 10° NE
STARLINK-1361 2.8 02:26:56 57° WSW 02:27:29 83° NW 02:30:36 10° NE
STARLINK-1367 2.8 02:27:10 56° WSW 02:27:45 83° NW 02:30:54 10° NE
STARLINK-1366 2.8 02:27:33 56° WSW 02:28:07 82° NW 02:31:14 10° NE
STARLINK-1339 3.0 02:27:27 47° SW 02:28:22 88° SE 02:31:53 10° NE
SL-4 R/B 3.7 02:24:45 11° W 02:29:03 37° NNW 02:33:24 10° NE
IRS-1C 4.4 02:24:17 10° NNE 02:29:35 64° ESE 02:33:25 19° S
AQUA 4.1 02:25:20 10° N 02:30:00 55° WNW 02:32:11 29° SW
Cosmos 1812 Rocket 4.1 02:26:02 10° NNW 02:30:14 41° W 02:31:37 31° SW
STARLINK-1377 3.1 02:29:28 44° SW 02:30:28 89° NW 02:33:59 10° NE
STARLINK-1353 3.1 02:31:17 43° WSW 02:32:20 86° NW 02:35:49 10° NE
CZ-4B R/B 3.9 02:27:32 10° N 02:32:31 52° WNW 02:35:13 26° SW
Cosmos 2297 Rocket 2.1 02:27:15 10° NNW 02:32:53 72° WSW 02:38:29 10° SSE
STARLINK-1233 4.4 02:28:48 10° NW 02:32:53 55° NNE 02:36:57 10° ESE
STARLINK-1375 3.1 02:33:04 40° WSW 02:34:12 83° NW 02:37:41 10° NE
ATLAS CENTAUR R/B 3.8 02:33:39 10° WNW 02:36:06 15° NW 02:38:29 10° N
Cosmos 540 Rocket 4.3 02:32:22 16° S 02:36:10 46° ESE 02:41:05 10° NNE
Cosmos 2082 4.1 02:30:56 10° NNW 02:36:35 64° ENE 02:42:09 10° SE
STARLINK-1350 3.1 02:35:22 38° WSW 02:36:35 79° NW 02:40:05 10° NE
FALCON 9 DEB 4.3 02:35:24 21° W 02:37:10 38° NNW 02:40:26 10° NE
STARLINK-1204 4.2 02:33:47 10° NW 02:37:54 59° NNE 02:41:59 10° ESE
Cosmos 990 Rocket 3.9 02:33:30 10° NNW 02:38:47 78° WSW 02:44:00 10° SSE
STARLINK-1352 3.2 02:37:39 35° WSW 02:39:01 76° NW 02:42:32 10° NE
CBERS-1 4.1 02:34:20 10° N 02:39:25 67° WNW 02:42:28 24° SSW
Cosmos 1825 Rocket 3.5 02:38:21 29° SSW 02:40:28 66° W 02:44:48 10° N
Cosmos 2278 4.5 02:36:08 15° S 02:40:30 47° ESE 02:45:54 10° NE
STARLINK-1368 3.2 02:39:45 33° WSW 02:41:11 72° NW 02:44:43 10° NE
STARLINK-1238 4.1 02:38:44 10° NW 02:42:52 63° NNE 02:46:58 10° ESE
Meteor 1-11 4.5 02:38:11 15° S 02:42:56 67° E 02:48:31 10° NNE
Cosmos 1455 2.5 02:39:23 10° NNW 02:42:57 44° W 02:44:15 31° SW
STARLINK-1369 3.3 02:41:37 31° WSW 02:43:06 70° NNW 02:46:36 10° NE
Meteor 1-28 Rocket 4.2 02:40:03 10° SSE 02:43:42 48° ENE 02:47:21 10° N
SL-16 R/B 3.3 02:41:06 23° SW 02:43:50 32° W 02:49:17 10° NNW
STARLINK-1372 3.3 02:43:58 29° WSW 02:45:35 67° NNW 02:49:06 10° NE
USA 234 4.3 02:40:07 10° ENE 02:45:59 35° SE 02:51:07 13° S
Cosmos 2074 Rocket 4.3 02:40:25 11° S 02:46:21 70° E 02:52:37 10° NNE
ATLAS CENTAUR R/B 2.3 02:43:06 10° NW 02:46:22 69° SW 02:54:22 10° SE
STARLINK-1378 3.4 02:46:05 27° WSW 02:47:48 64° NNW 02:51:20 10° NE
STARLINK-1201 3.9 02:43:43 10° NW 02:47:52 69° NNE 02:51:59 10° ESE
STARLINK-1329 3.4 02:46:35 27° WSW 02:48:20 64° NNW 02:51:51 10° NE
Cosmos 841 Rocket 3.8 02:44:27 17° S 02:48:25 66° ESE 02:53:37 10° NNE
STARLINK-1365 3.5 02:47:16 26° WSW 02:49:04 60° NNW 02:52:34 10° NE
STARLINK-1379 3.5 02:48:13 26° WSW 02:50:02 61° NNW 02:53:33 10° NE
STARLINK-1362 3.5 02:48:47 25° WSW 02:50:37 61° NNW 02:54:08 10° NE
GP-B 3.7 02:47:06 10° NNW 02:51:18 42° W 02:53:37 23° SW
IRS-1D 3.9 02:47:07 10° N 02:52:18 53° WNW 02:55:45 20° SW
STARLINK-1206 3.8 02:48:42 10° NW 02:52:51 74° NE 02:56:59 10° ESE
STARLINK-1373 3.6 02:50:59 24° WSW 02:52:55 58° NNW 02:56:27 10° NE
COBE Rocket 4.2 02:48:48 10° SSE 02:53:39 72° ENE 02:58:42 10° N
Cosmos-2242 3.2 02:50:25 10° NNW 02:54:34 51° W 02:57:21 19° SSW
NOSS 7 (E) 4.3 02:53:04 26° SW 02:54:58 85° NW 02:58:08 10° NE
STARLINK-1390 3.6 02:52:58 23° WSW 02:55:00 56° NNW 02:58:29 10° NE
Cosmos 1400 Rocket 3.2 02:51:37 10° N 02:55:44 69° E 02:59:50 10° SSE
Cosmos 2221 4.2 02:52:31 10° N 02:56:29 34° ENE 03:00:26 10° SE
ATLAS 3B R/B 3.9 02:52:49 10° WNW 02:57:37 20° WSW 02:59:50 18° SW
STARLINK-1205 3.7 02:53:40 10° NW 02:57:50 80° NE 03:01:58 10° ESE
Cosmos 2184 Rocket 4.0 02:51:53 11° S 02:57:52 82° E 03:04:04 10° N
SL-08 R/B 3.2 02:54:29 10° S 02:59:12 71° WSW 03:03:51 10° NNW
CZ-4C R/B 4.2 02:56:16 10° SE 02:59:40 44° ENE 03:03:09 10° N
STARLINK-1218 3.6 02:58:38 10° NW 03:02:47 87° NNE 03:06:56 10° SE
Cosmos 1703 4.1 03:02:09 21° SW 03:04:09 35° WNW 03:07:49 10° N
Cosmos 1763 Rocket 3.9 03:03:46 18° SW 03:07:16 46° WNW 03:12:10 10° N
STARLINK-1254 3.5 03:03:37 10° NW 03:07:47 87° SW 03:11:55 10° SE
IRS-P3 4.4 03:02:43 10° N 03:07:55 54° WNW 03:12:05 16° SW
CZ-2D R/B 3.7 03:04:26 10° NNW 03:08:15 21° WNW 03:11:34 12° WSW
Cosmos 2227 Rocket 2.6 03:03:02 10° NW 03:08:22 43° WSW 03:13:39 10° S
Cosmos 2181 Rocket 4.4 03:03:09 10° NNW 03:09:14 47° W 03:15:15 10° SSW
Cosmos 1697 Rocket 2.8 03:04:56 17° SW 03:09:18 69° WNW 03:14:59 10° NNE
ADEOS II 2.6 03:06:00 10° N 03:11:00 46° WNW 03:15:03 15° SW
STARLINK-1228 4.3 03:08:44 10° W 03:11:19 21° SW 03:13:53 10° S
STARLINK-1231 3.5 03:08:37 10° NW 03:12:46 80° SW 03:16:55 10° SE
STARLINK-1212 3.8 03:10:29 10° WNW 03:13:09 26° SW 03:15:49 10° SSE
STARLINK-1105 3.8 03:10:57 10° WNW 03:13:37 26° SW 03:16:15 10° SSE
STARLINK-1247 3.8 03:11:53 10° WNW 03:14:32 26° SW 03:17:11 10° SSE
STARLINK-1227 3.8 03:12:21 10° WNW 03:14:58 25° SW 03:17:36 10° SSE
SL-16 R/B 4.3 03:11:20 10° SSE 03:15:32 22° E 03:19:44 10° NE
Cosmos 1315 Rocket 4.2 03:12:01 10° N 03:15:43 39° ENE 03:19:24 10° SE
STARLINK-1226 3.9 03:13:13 10° WNW 03:15:51 25° SW 03:18:28 10° SSE
STARLINK-1215 3.9 03:14:10 10° WNW 03:16:47 25° SW 03:19:24 10° SSE
Resurs 1-4 Rocket 3.9 03:14:19 10° NNW 03:17:39 17° WNW 03:20:59 10° W
STARLINK-1232 3.5 03:13:37 10° WNW 03:17:45 74° SW 03:21:52 10° SE
CZ-2C R/B 3.2 03:14:08 10° NNE 03:17:48 59° E 03:21:28 10° S
STARLINK-1217 4.0 03:15:58 10° WNW 03:18:32 24° SW 03:21:06 10° S
STARLINK-1229 4.0 03:16:55 10° W 03:19:28 23° SW 03:22:01 10° S
H-2A R/B 2.0 03:15:46 10° SSE 03:20:02 81° WSW 03:24:28 10° NNW
STARLINK-1270 4.0 03:17:47 10° W 03:20:19 23° SW 03:22:51 10° S
STARLINK-1189 4.1 03:19:39 10° W 03:22:09 22° SW 03:24:37 10° S
ARIANE 5 R/B 2.7 03:17:38 10° N 03:22:36 57° WNW 03:27:15 11° SSW
STARLINK-1208 3.5 03:18:34 10° WNW 03:22:41 67° SW 03:26:48 10° SE
BREEZE-M R/B 3.9 03:19:33 10° W 03:22:46 28° NNW 03:25:05 10° NE
STARLINK-1188 4.1 03:20:33 10° W 03:23:01 22° SW 03:25:30 10° S
STARLINK-1235 4.5 03:23:58 16° SW 03:23:58 16° SW 03:25:38 10° S
STARLINK-1187 4.3 03:21:49 10° W 03:24:04 18° SW 03:26:19 10° S
STARLINK-1191 4.2 03:23:06 10° W 03:25:28 20° SW 03:27:50 10° S
STARLINK-1221 4.2 03:23:58 10° W 03:26:20 20° SW 03:28:41 10° S
STARLINK-1222 4.2 03:24:53 10° W 03:27:14 20° SW 03:29:33 10° S
STARLINK-1271 3.6 03:23:35 10° WNW 03:27:41 61° SW 03:31:46 10° SE
BREEZE-M DEB (TANK) 1.1 03:25:59 10° WNW 03:28:05 57° SSW 03:30:34 10° SE
STARLINK-1214 4.2 03:25:49 10° W 03:28:07 19° SW 03:30:24 10° S
Spot 4 Rocket 4.1 03:23:25 10° N 03:28:32 70° WNW 03:33:37 10° SSW
SL-24 DEB 4.5 03:24:17 10° N 03:28:56 72° E 03:33:30 10° S
Cosmos 2154 Rocket 4.1 03:23:32 10° S 03:29:50 88° W 03:36:09 10° N
Lacrosse 4 Rocket 1.4 03:25:37 10° NNW 03:29:58 80° WSW 03:34:09 10° SSE
Meteor 1-27 4.2 03:25:40 10° NNW 03:31:11 67° W 03:36:41 10° S
Cosmos 2058 3.8 03:27:10 10° S 03:31:12 51° E 03:35:17 10° NNE
Cosmos 1898 Rocket 4.5 03:27:06 10° NW 03:31:35 28° W 03:36:01 10° SSW
USA 129 0.7 03:30:23 10° NNE 03:32:18 84° ESE 03:33:05 20° S
STARLINK-1154 3.7 03:28:35 10° WNW 03:32:39 56° SW 03:36:42 10° SE
SJ 16-02 2.9 03:30:37 10° NW 03:33:31 17° W 03:36:12 11° SW
Cosmos 2298 Rocket 4.2 03:28:47 10° NNW 03:34:07 83° ENE 03:39:25 10° SSE
IDEFIX/ARIANE 42P 2.6 03:31:15 10° NNE 03:36:33 84° WNW 03:41:49 10° SSW
STARLINK-1197 3.8 03:33:35 10° WNW 03:37:37 51° SW 03:41:37 10° SSE
STARLINK 1040 3.6 03:35:58 11° SSW 03:38:11 32° SE 03:40:34 10° ENE
CZ-4C R/B 2.7 03:35:54 10° WSW 03:40:41 47° NW 03:46:28 10° NNE
Cosmos 1937 Rocket 4.3 03:37:14 10° NW 03:41:47 31° W 03:46:22 10° SSW
Cosmos 2285 Rocket 4.5 03:36:02 10° NW 03:41:55 41° W 03:47:45 10° SSW
STARLINK-1198 3.9 03:38:34 10° WNW 03:42:33 46° SW 03:46:30 10° SSE
Cosmos 2369 4.4 03:37:52 10° SW 03:43:07 40° WNW 03:48:26 10° NNE
Cosmos 1842 Rocket 3.7 03:40:07 10° NNW 03:44:32 58° W 03:48:55 10° S
Cosmos 1408 4.1 03:42:52 10° SSE 03:46:19 38° E 03:49:47 10° NNE
Iridium 2 4.3 03:43:44 10° NNW 03:47:12 36° W 03:50:39 10° SSW
STARLINK-1199 4.0 03:43:37 10° WNW 03:47:32 42° SW 03:51:27 10° SSE
Meteor 2-2 Rocket 4.4 03:42:55 10° NNW 03:48:59 80° W 03:55:00 10° S
Uosat 12 SS-18 rocket 4.0 03:44:58 10° NW 03:49:15 73° WSW 03:53:51 10° SSE
IRIDIUM 104 4.5 03:46:10 10° SSW 03:51:17 59° W 03:56:27 10° N
STARLINK-1210 4.1 03:48:37 10° WNW 03:52:29 38° SW 03:56:19 10° SSE
CZ-4B R/B 2.0 03:50:41 10° SSE 03:53:39 56° ENE 03:56:40 10° N
STARLINK-1200 4.4 03:50:46 10° NW 03:54:52 57° NNE 03:58:57 10° ESE
